[[{"header":{"parameterUnit":"m.s-1","parameterCategory":2,"la1":30.2991,"la2":30.254,"lo1":-89.0895,"lo2":-89.0444,"dy":0.0017,"dx":0.0017,"nx":28,"ny":28,"refTime":"2025-07-10T03:00:00:Z","depth":"0","parameterNumber":2,"parameterNumberName":"U-component_of_CURRENTS"},"data":[0,0,0,0,0,0,0,0,0,0,0,0,0,0,0,0,0,0,0,0,0,0,0,0,0,0,0,0,0,0,0,0,0,0,0,0,0,0,0,0,0,0,0,0,0,0,0,0,0,0,0,0,0,0,0,0,0,0,0.2315,0.2316,0,0.2366,0.2366,0.2367,0.2355,0.2354,0.2353,0.2353,0.2388,0.239,0.2392,0,0,0,0,0,0,0,0,0,0,0,0,0,0.2203,0.2205,0.2315,0.2316,0.2317,0.2366,0.2366,0.2367,0.2355,0.2354,0.2353,0.2352,0.2388,0.239,0.2392,0,0,0,0,0,0,0,0,0,0,0,0,0,0.2251,0.2206,0.2315,0.2318,0.2319,0.2366,0.2366,0.2367,0.2355,0.2354,0.2353,0.2352,0.2387,0.239,0.2392,0.2431,0,0,0.24,0.2401,0,0,0,0,0,0,0,0,0.2248,0.2255,0.2317,0.2318,0.2319,0.2355,0.234,0.2388,0.2356,0.234,0.2353,0.2351,0.2378,0.2381,0.2391,0.2433,0.2434,0.24,0.2402,0.2403,0.2403,0,0,0,0,0,0,0,0.2245,0.2252,0.2333,0.2318,0.232,0.2316,0.2321,0.2349,0.2363,0.2341,0.2341,0.235,0.2378,0.2388,0.2391,0.2435,0.24,0.2402,0.2404,0.2405,0.2695,0.2701,0,0,0,0,0,0,0.2245,0.225,0.2332,0.2335,0.2282,0.2319,0.2325,0.2343,0.2363,0.2366,0.2351,0.2349,0.2384,0.2388,0.2393,0.2561,0.2403,0.2405,0.2406,0.2689,0.2696,0.2703,0,0,0,0,0,0,0.2242,0.2252,0.233,0.2294,0.2304,0.2322,0.2343,0.2345,0.2353,0.2371,0.2372,0.2357,0.2384,0.2389,0.2452,0.2557,0.2406,0.2408,0.2682,0.2691,0.27,0.282,0,0,0,0,0,0,0.2239,0.2251,0.2265,0.2295,0.2306,0.2362,0.2344,0.2346,0.2361,0.2359,0.2377,0.2379,0.2383,0.2449,0.2455,0.2558,0.241,0.2674,0.2686,0.2697,0.2808,0.2832,0.2853,0,0,0,0,0,0.2235,0.2266,0.2266,0.2276,0.2325,0.2364,0.2369,0.2376,0.2363,0.2376,0.2409,0.2378,0.2529,0.2454,0.246,0.2567,0.2668,0.2682,0.2696,0.2798,0.2828,0.2853,0,0,0,0,0,0,0.2229,0.2269,0.2269,0.2311,0.2335,0.2362,0.238,0.238,0.2415,0.2415,0.2422,0.2429,0.2535,0.254,0.2457,0.2697,0.2609,0.2624,0.2685,0.2713,0.2735,0.2796,0.2412,0,0,0,0,0,0.2234,0.2268,0.2296,0.2332,0.2342,0.2358,0.2374,0.238,0.2413,0.2425,0.2442,0.2502,0.2602,0.2639,0.2696,0.2798,0.287,0.289,0.2912,0.2931,0.2994,0.3214,0.3262,0.2749,0.2749,0.2749,0,0,0.2249,0.2271,0.2293,0.2333,0.2349,0.2394,0.2364,0.2395,0.2461,0.2427,0.2511,0.2557,0.2645,0.2778,0.283,0.2789,0.3108,0.2948,0.2963,0.3017,0.3234,0.3284,0.3328,0.2758,0.2757,0.2755,0,0,0.2301,0.2305,0.2353,0.237,0.2399,0.2418,0.2427,0.2455,0.2494,0.2577,0.2612,0.2751,0.2809,0.2957,0.303,0.3222,0.321,0.3209,0.3376,0.3588,0.3632,0.3672,0.3784,0.3833,0.323,0.323,0.323,0,0.232,0.2385,0.2372,0.2414,0.245,0.2433,0.2498,0.2542,0.2594,0.2681,0.262,0.2887,0.2942,0.3217,0.3294,0.3282,0.3336,0.3248,0.3616,0.3657,0.3696,0.3802,0.3855,0.3238,0.3237,0.3236,0.3235,0,0.2409,0.2455,0.2481,0.254,0.2565,0.2617,0.2662,0.2722,0.2754,0.2824,0.3046,0.3147,0.3329,0.3378,0.3392,0.3715,0.3639,0.3602,0.3536,0.3755,0.3852,0.3904,0.3248,0.3246,0.3243,0.3242,0,0,0.2521,0.2545,0.2562,0.2622,0.2641,0.27,0.28,0.2945,0.3073,0.3152,0.3361,0.3588,0.3634,0.3731,0.3784,0.398,0.4288,0.3902,0.391,0.3993,0.4679,0.4573,0.4617,0.4279,0.429,0.4299,0.4619,0,0.2622,0.2736,0.2704,0.284,0.2927,0.2922,0.3035,0.3153,0.3237,0.3415,0.3605,0.3791,0.3767,0.3867,0.4074,0.4219,0.4438,0.4201,0.4476,0.4485,0.4349,0.4683,0.457,0.4843,0.4669,0.4678,0.4684,0,0.2774,0.2834,0.2955,0.3068,0.31,0.3144,0.3341,0.3438,0.3649,0.3716,0.392,0.4001,0.4327,0.4249,0.4678,0.4498,0.4641,0.4743,0.4756,0.4669,0.4483,0.4612,0.4944,0.4779,0.4764,0.4758,0.4752,0,0.2969,0.305,0.316,0.3184,0.3269,0.3335,0.3396,0.3555,0.368,0.3909,0.4015,0.4322,0.4492,0.4741,0.4911,0.4821,0.5321,0.5224,0.5285,0.5272,0.5251,0.5218,0.5455,0.562,0.5619,0.5618,0.5617,0,0.3158,0.3277,0.3248,0.332,0.3481,0.3481,0.3668,0.3752,0.3905,0.4065,0.4187,0.4363,0.4627,0.4879,0.5028,0.5307,0.5436,0.5423,0.5416,0.5279,0.5248,0.5153,0.5089,0.563,0.5627,0.5625,0.5623,0,0.34,0.3377,0.3519,0.356,0.3572,0.3698,0.3771,0.3905,0.4008,0.4209,0.4287,0.4493,0.4771,0.5,0.539,0.546,0.5609,0.5795,0.5553,0.5516,0.5367,0.5313,0.5396,0.5286,0.5956,0.5957,0.5957,0,0.354,0.3618,0.3668,0.3707,0.3706,0.3832,0.3899,0.3973,0.4051,0.4268,0.4363,0.4657,0.4816,0.5289,0.5516,0.5812,0.5645,0.5851,0.5727,0.5452,0.5391,0.5099,0.4978,0.573,0.5728,0.5727,0.5726,0,0.3775,0.3758,0.3825,0.387,0.391,0.3984,0.4038,0.4102,0.4177,0.43,0.4413,0.4553,0.4969,0.5185,0.5544,0.5718,0.5579,0.5829,0.5689,0.5408,0.4981,0.4832,0.5326,0.5714,0.5715,0.5716,0.5717,0.5717,0.3896,0.3955,0.3943,0.3992,0.4036,0.4012,0.4022,0.4058,0.4124,0.4183,0.436,0.4507,0.4877,0.5351,0.5468,0.5591,0.5532,0.5529,0.5539,0.5299,0.5063,0.5474,0.5738,0.5739,0.574,0.5741,0.5742,0,0.3947,0.396,0.4034,0.4006,0.3996,0.4008,0.4008,0.3956,0.3929,0.4102,0.4169,0.4477,0.4767,0.5063,0.5371,0.5305,0.5113,0.5216,0.4837,0.4778,0.5324,0.5176,0.5155,0.5155,0.5155,0.5155,0.5156,0.5156,0.3959,0.3975,0.3969,0.3894,0.3871,0.3767,0.3716,0.3672,0.3744,0.3799,0.3931,0.4099,0.4508,0.497,0.507,0.5027,0.4683,0.4552,0.4498,0.4918,0.4944,0.497,0.4814,0.4718,0.4718,0.3754,0.3748,0.3743]},{"header":{"parameterUnit":"m.s-1","parameterCategory":2,"la1":30.2991,"la2":30.254,"lo1":-89.0895,"lo2":-89.0444,"dy":0.0017,"dx":0.0017,"nx":28,"ny":28,"refTime":"2025-07-10T03:00:00:Z","depth":"0","parameterNumber":3,"parameterNumberName":"V-component_of_CURRENTS"},"data":[0,0,0,0,0,0,0,0,0,0,0,0,0,0,0,0,0,0,0,0,0,0,0,0,0,0,0,0,0,0,0,0,0,0,0,0,0,0,0,0,0,0,0,0,0,0,0,0,0,0,0,0,0,0,0,0,0,0,-0.0133,-0.0134,0,-0.0201,-0.0202,-0.0203,-0.0256,-0.0257,-0.0257,-0.0258,-0.0308,-0.0309,-0.0309,0,0,0,0,0,0,0,0,0,0,0,0,0,-0.0059,-0.006,-0.0133,-0.0134,-0.0135,-0.0201,-0.0202,-0.0203,-0.0256,-0.0257,-0.0257,-0.0258,-0.0308,-0.0309,-0.031,0,0,0,0,0,0,0,0,0,0,0,0,0,-0.0105,-0.006,-0.0133,-0.017,-0.0174,-0.0201,-0.0202,-0.0203,-0.0256,-0.0257,-0.0258,-0.0258,-0.0307,-0.0308,-0.031,-0.0301,0,0,-0.0313,-0.0314,0,0,0,0,0,0,0,0,-0.0102,-0.0108,-0.0163,-0.0167,-0.0172,-0.0222,-0.0195,-0.0235,-0.0256,-0.0224,-0.0258,-0.0259,-0.0277,-0.0281,-0.0291,-0.0303,-0.0305,-0.0314,-0.0314,-0.0315,-0.0315,0,0,0,0,0,0,0,-0.0099,-0.0105,-0.016,-0.0164,-0.0169,-0.0186,-0.0194,-0.0203,-0.0244,-0.0227,-0.0231,-0.0239,-0.0279,-0.029,-0.0293,-0.0306,-0.0313,-0.0315,-0.0315,-0.0316,-0.0156,-0.0151,0,0,0,0,0,0,-0.009,-0.0102,-0.0158,-0.0162,-0.0139,-0.0187,-0.0195,-0.0204,-0.0245,-0.0252,-0.0238,-0.0241,-0.0288,-0.0291,-0.0295,-0.0147,-0.0315,-0.0316,-0.0317,-0.0161,-0.0155,-0.0149,0,0,0,0,0,0,-0.0088,-0.0095,-0.0155,-0.0134,-0.0143,-0.0187,-0.0197,-0.0205,-0.0215,-0.0254,-0.0261,-0.024,-0.0288,-0.0293,-0.0266,-0.0155,-0.0316,-0.0318,-0.0167,-0.0159,-0.0152,0.0059,0,0,0,0,0,0,-0.0086,-0.0094,-0.0093,-0.0133,-0.0144,-0.0159,-0.0197,-0.0206,-0.0219,-0.0224,-0.0257,-0.0263,-0.0289,-0.0263,-0.0267,-0.016,-0.0319,-0.0173,-0.0163,-0.0154,0.0046,0.0073,0.0096,0,0,0,0,0,-0.0083,-0.0079,-0.0092,-0.0099,-0.0143,-0.0158,-0.0164,-0.0199,-0.0218,-0.0213,-0.0214,-0.0262,-0.0205,-0.0262,-0.0267,-0.0157,-0.0178,-0.0166,-0.0155,0.0034,0.0067,0.0095,0,0,0,0,0,0,-0.004,-0.0085,-0.0101,-0.0108,-0.0126,-0.0167,-0.0169,-0.0191,-0.0191,-0.0191,-0.0227,-0.0231,-0.015,-0.019,-0.0251,-0.0078,-0.0187,-0.0177,-0.0041,-0.0011,0.0014,0.0116,-0.032,0,0,0,0,0,-0.003,-0.0041,-0.0078,-0.008,-0.009,-0.0126,-0.0136,-0.0155,-0.0166,-0.017,-0.0184,-0.0168,-0.0107,-0.0094,-0.0074,-0.0008,-0.0014,0.007,0.0096,0.0117,0.0201,0.0304,0.0347,-0.0113,-0.0113,-0.0113,0,0,-0.0011,-0.0038,-0.0042,-0.0071,-0.0091,-0.0058,-0.0134,-0.0141,-0.0073,-0.0172,-0.0092,-0.0094,-0.0071,0.003,0.0064,0.0007,0.0227,0.0131,0.0149,0.0224,0.0321,0.0365,0.0405,-0.0105,-0.0106,-0.0108,0,0,0.0038,-0.0003,0.0014,0.0011,-0.0011,-0.002,-0.0015,-0.0042,-0.0017,0.004,0.0036,0.0125,0.0127,0.0229,0.0271,0.045,0.0356,0.042,0.063,0.0727,0.0767,0.0801,0.0769,0.0799,0.0432,0.0433,0.0433,0,0.007,0.0095,0.0021,0.0052,0.0081,0.0012,0.0078,0.01,0.01,0.0181,0.0094,0.0278,0.0269,0.051,0.0573,0.0521,0.0488,0.0504,0.0762,0.0797,0.0829,0.0788,0.0819,0.0444,0.0443,0.0442,0.0441,0,0.0148,0.0178,0.019,0.0223,0.0234,0.0274,0.0292,0.0347,0.0356,0.0402,0.0592,0.0605,0.0734,0.0745,0.071,0.0966,0.0833,0.0777,0.0685,0.0889,0.083,0.0859,0.0461,0.0457,0.0453,0.045,0,0,0.024,0.0247,0.0262,0.032,0.0339,0.0367,0.0501,0.0634,0.0778,0.0805,0.102,0.1151,0.1152,0.1208,0.1189,0.1281,0.1435,0.1126,0.1125,0.1093,0.1544,0.1407,0.1422,0.1392,0.14,0.1407,0.138,0,0.0353,0.0448,0.0426,0.0568,0.064,0.065,0.0794,0.0906,0.0984,0.116,0.127,0.1423,0.1329,0.139,0.1492,0.146,0.1533,0.1442,0.1357,0.1354,0.1211,0.1464,0.1393,0.1363,0.1407,0.1411,0.1415,0,0.0493,0.0534,0.0663,0.0795,0.0828,0.0898,0.1129,0.1245,0.1474,0.1542,0.1726,0.1753,0.1961,0.1805,0.1924,0.1844,0.1748,0.1689,0.1685,0.1533,0.1279,0.1186,0.1412,0.1077,0.1457,0.1454,0.1451,0,0.0646,0.0743,0.0851,0.0885,0.0994,0.1091,0.1178,0.138,0.1534,0.1783,0.1902,0.2106,0.219,0.2193,0.207,0.1996,0.2118,0.1989,0.1783,0.1763,0.169,0.1652,0.1608,0.2109,0.2109,0.2109,0.211,0,0.0827,0.0937,0.092,0.0984,0.1164,0.1203,0.1441,0.1564,0.1789,0.2003,0.2096,0.228,0.229,0.2332,0.2198,0.2089,0.222,0.1911,0.1819,0.1745,0.1715,0.1404,0.1219,0.2108,0.2108,0.2109,0.2109,0,0.1015,0.1007,0.1128,0.1197,0.123,0.1357,0.1536,0.173,0.1896,0.2174,0.2258,0.2441,0.2486,0.2434,0.2405,0.2229,0.1949,0.2049,0.1898,0.1794,0.1273,0.1103,0.1077,0.0889,0.1851,0.1849,0.1847,0,0.1132,0.1191,0.1233,0.129,0.1313,0.1475,0.1615,0.1782,0.196,0.2263,0.2409,0.2542,0.2659,0.2554,0.2319,0.2111,0.1854,0.1835,0.1751,0.1328,0.1071,0.0996,0.0833,0.1676,0.1673,0.167,0.1668,0,0.1316,0.1288,0.1341,0.143,0.1529,0.1684,0.1857,0.2001,0.2222,0.2415,0.2636,0.2748,0.2672,0.25,0.2208,0.2014,0.157,0.1766,0.1442,0.1078,0.0897,0.0638,0.1489,0.1644,0.1646,0.1648,0.1649,0.165,0.141,0.146,0.1467,0.1577,0.1696,0.1858,0.1994,0.2165,0.2399,0.267,0.2754,0.2942,0.2668,0.2298,0.195,0.1274,0.1344,0.1051,0.0911,0.0898,0.0672,0.1415,0.1394,0.1395,0.1396,0.1396,0.1397,0,0.149,0.1522,0.1623,0.1722,0.1869,0.191,0.2141,0.2274,0.2484,0.2747,0.2908,0.2951,0.2426,0.1943,0.1107,0.0556,0.0363,0.0241,0.0127,0.0022,0.0785,0.0725,0.0424,0.0425,0.0425,0.0425,0.0426,0.0426,0.1521,0.1592,0.1633,0.1835,0.1928,0.2111,0.223,0.2404,0.2613,0.2909,0.3106,0.3279,0.2979,0.1312,0.0095,-0.0213,-0.0638,-0.0681,-0.0897,-0.0423,-0.0358,-0.0296,-0.0394,-0.0924,-0.0925,-0.1605,-0.1613,-0.1618]}],[{"header":{"parameterUnit":"m.s-1","parameterCategory":2,"la1":30.2991,"la2":30.254,"lo1":-89.0895,"lo2":-89.0444,"dy":0.0017,"dx":0.0017,"nx":28,"ny":28,"refTime":"2025-07-10T03:00:00:Z","depth":"2","parameterNumber":2,"parameterNumberName":"U-component_of_CURRENTS"},"data":[0,0,0,0,0,0,0,0,0,0,0,0,0,0,0,0,0,0,0,0,0,0,0,0,0,0,0,0,0,0,0,0,0,0,0,0,0,0,0,0,0,0,0,0,0,0,0,0,0,0,0,0,0,0,0,0,0,0,0.1483,0.1484,0,0.1504,0.1504,0.1504,0.1507,0.1507,0.1507,0.1507,0.1512,0.1512,0.1512,0,0,0,0,0,0,0,0,0,0,0,0,0,0.1415,0.1416,0.1483,0.1484,0.1484,0.1504,0.1504,0.1504,0.1507,0.1507,0.1507,0.1507,0.1512,0.1512,0.1512,0,0,0,0,0,0,0,0,0,0,0,0,0,0.1439,0.1417,0.1483,0.149,0.1491,0.1504,0.1504,0.1504,0.1507,0.1507,0.1507,0.1507,0.1512,0.1512,0.1512,0.1512,0,0,0.1513,0.1513,0,0,0,0,0,0,0,0,0.1437,0.1441,0.1488,0.1489,0.149,0.1505,0.1482,0.1507,0.1507,0.1498,0.1507,0.1507,0.151,0.151,0.1511,0.1512,0.1513,0.1513,0.1513,0.1513,0.1513,0,0,0,0,0,0,0,0.1436,0.144,0.1489,0.1489,0.149,0.1481,0.1485,0.1486,0.1501,0.1499,0.15,0.1506,0.151,0.151,0.1511,0.1513,0.1513,0.1513,0.1513,0.1513,0.1623,0.1625,0,0,0,0,0,0,0.144,0.1439,0.1488,0.149,0.1466,0.1483,0.1486,0.1498,0.1502,0.1503,0.1506,0.1506,0.151,0.151,0.1511,0.1603,0.1513,0.1513,0.1513,0.162,0.1623,0.1626,0,0,0,0,0,0,0.1439,0.1444,0.1488,0.1466,0.1471,0.1484,0.1497,0.1499,0.1509,0.1508,0.1508,0.1517,0.151,0.1511,0.1536,0.1599,0.1513,0.1513,0.1616,0.1621,0.1625,0.1728,0,0,0,0,0,0,0.1437,0.1444,0.1454,0.1467,0.1473,0.1516,0.1498,0.1499,0.1514,0.1514,0.1517,0.1517,0.151,0.1536,0.1536,0.1598,0.1513,0.1613,0.1618,0.1623,0.1721,0.1735,0.1747,0,0,0,0,0,0.1434,0.1454,0.1454,0.146,0.1486,0.1517,0.152,0.1526,0.1514,0.1533,0.1535,0.1517,0.1571,0.1537,0.1537,0.1601,0.161,0.1617,0.1623,0.1715,0.1732,0.1747,0,0,0,0,0,0,0.143,0.1457,0.1457,0.1484,0.1507,0.1519,0.1535,0.1533,0.1547,0.1548,0.1535,0.1537,0.1592,0.1577,0.1541,0.1651,0.1595,0.1601,0.1665,0.1681,0.1694,0.1654,0.1513,0,0,0,0,0,0.1433,0.1457,0.1479,0.1502,0.1515,0.1523,0.1534,0.1543,0.1556,0.1562,0.1568,0.1583,0.1617,0.163,0.1651,0.1693,0.1668,0.1741,0.1754,0.1765,0.1735,0.1752,0.1763,0.1647,0.1647,0.1647,0,0,0.1437,0.1456,0.1468,0.1503,0.1517,0.1552,0.1531,0.1561,0.1594,0.156,0.1607,0.1624,0.1638,0.1701,0.1726,0.1696,0.1797,0.1773,0.1782,0.1745,0.1759,0.177,0.178,0.1651,0.1651,0.165,0,0,0.1463,0.1476,0.1506,0.153,0.1564,0.1577,0.1589,0.1616,0.1633,0.1676,0.1678,0.1716,0.1758,0.1784,0.1802,0.1892,0.1866,0.1926,0.1958,0.1977,0.1985,0.1992,0.2018,0.2026,0.1933,0.1933,0.1933,0,0.1465,0.1504,0.152,0.1558,0.1578,0.1592,0.1628,0.1657,0.1691,0.1704,0.1707,0.1778,0.1795,0.1862,0.1908,0.192,0.1925,0.1897,0.1991,0.1997,0.2002,0.2026,0.2033,0.1939,0.1938,0.1937,0.1937,0,0.1519,0.1547,0.1569,0.1621,0.1649,0.1683,0.1723,0.1754,0.1774,0.1795,0.186,0.1886,0.1918,0.1964,0.1963,0.2032,0.2025,0.2006,0.1943,0.202,0.2041,0.2047,0.1947,0.1945,0.1943,0.1942,0,0,0.1528,0.1591,0.1599,0.1616,0.168,0.1701,0.1767,0.1814,0.1844,0.1896,0.1936,0.2011,0.201,0.2027,0.205,0.2073,0.2145,0.2061,0.206,0.2071,0.2199,0.2264,0.2276,0.2148,0.2149,0.215,0.2214,0,0.1561,0.162,0.1653,0.1707,0.1734,0.1767,0.1818,0.1864,0.191,0.1961,0.1996,0.2055,0.2045,0.2079,0.21,0.2141,0.2159,0.2129,0.2133,0.2133,0.2168,0.2284,0.2076,0.2121,0.2219,0.222,0.2221,0,0.1604,0.163,0.1681,0.1722,0.1737,0.1775,0.1832,0.1884,0.196,0.2,0.2051,0.2085,0.2152,0.2125,0.2189,0.2177,0.2181,0.2196,0.2199,0.221,0.2207,0.2053,0.2127,0.223,0.2229,0.2228,0.2228,0,0.1583,0.1648,0.1676,0.1697,0.1756,0.1776,0.181,0.1884,0.1936,0.2029,0.2089,0.2142,0.2216,0.221,0.2277,0.223,0.2346,0.2281,0.2331,0.2335,0.2129,0.2115,0.2287,0.2287,0.2287,0.2287,0.2287,0,0.1598,0.1618,0.1662,0.1674,0.1693,0.1751,0.1795,0.1845,0.1947,0.2036,0.21,0.2198,0.2243,0.2329,0.231,0.2386,0.2377,0.2349,0.2363,0.2169,0.2159,0.2209,0.22,0.2289,0.2289,0.2288,0.2288,0,0.1564,0.1607,0.1624,0.1669,0.1681,0.1689,0.1774,0.1821,0.1932,0.206,0.2105,0.2273,0.2415,0.2464,0.2522,0.2478,0.2504,0.2518,0.2311,0.2301,0.2451,0.2446,0.2538,0.2541,0.2543,0.2545,0.2547,0,0.155,0.1556,0.1587,0.1591,0.1607,0.164,0.1673,0.1788,0.1872,0.2116,0.2188,0.2393,0.2541,0.2679,0.264,0.2642,0.2646,0.2448,0.2308,0.2476,0.248,0.2471,0.2463,0.2076,0.2074,0.2072,0.2071,0,0.1488,0.1498,0.1501,0.152,0.1544,0.1588,0.1665,0.1733,0.1919,0.2062,0.2297,0.2442,0.2621,0.2597,0.265,0.2584,0.2429,0.2415,0.2641,0.2078,0.2056,0.2055,0.2059,0.2054,0.2056,0.2057,0.2058,0.2059,0.1415,0.1401,0.1416,0.1435,0.1477,0.1551,0.1584,0.1721,0.187,0.2068,0.2248,0.2376,0.2442,0.2421,0.2386,0.2319,0.2434,0.2267,0.2264,0.2266,0.2235,0.2221,0.2244,0.2247,0.2249,0.2251,0.2253,0,0.1313,0.1332,0.1338,0.1374,0.1418,0.1481,0.1593,0.1641,0.1809,0.1956,0.2117,0.1974,0.2039,0.211,0.1996,0.2008,0.1878,0.1925,0.1732,0.1753,0.177,0.1704,0.1577,0.1575,0.1573,0.1571,0,0,0.1255,0.1237,0.1262,0.131,0.1369,0.1431,0.1496,0.1579,0.1664,0.1691,0.1711,0.186,0.2018,0.1737,0.1739,0.1666,0.167,0.1586,0.2128,0.192,0.1933,0.1977,0.1905,0,0,0,0,0]},{"header":{"parameterUnit":"m.s-1","parameterCategory":2,"la1":30.2991,"la2":30.254,"lo1":-89.0895,"lo2":-89.0444,"dy":0.0017,"dx":0.0017,"nx":28,"ny":28,"refTime":"2025-07-10T03:00:00:Z","depth":"2","parameterNumber":3,"parameterNumberName":"V-component_of_CURRENTS"},"data":[0,0,0,0,0,0,0,0,0,0,0,0,0,0,0,0,0,0,0,0,0,0,0,0,0,0,0,0,0,0,0,0,0,0,0,0,0,0,0,0,0,0,0,0,0,0,0,0,0,0,0,0,0,0,0,0,0,0,-0.0639,-0.064,0,-0.0649,-0.0649,-0.0649,-0.0673,-0.0674,-0.0674,-0.0675,-0.0616,-0.0613,-0.0611,0,0,0,0,0,0,0,0,0,0,0,0,0,-0.0632,-0.0632,-0.0639,-0.064,-0.064,-0.0649,-0.0649,-0.0649,-0.0673,-0.0674,-0.0674,-0.0675,-0.0616,-0.0614,-0.0611,0,0,0,0,0,0,0,0,0,0,0,0,0,-0.0635,-0.0632,-0.0639,-0.0655,-0.0657,-0.0649,-0.0649,-0.0649,-0.0673,-0.0674,-0.0675,-0.0676,-0.0617,-0.0614,-0.0611,-0.0568,0,0,-0.06,-0.0599,0,0,0,0,0,0,0,0,-0.0635,-0.0635,-0.0652,-0.0654,-0.0656,-0.0663,-0.0625,-0.0619,-0.0672,-0.0664,-0.0675,-0.0676,-0.0626,-0.0622,-0.0619,-0.0565,-0.0563,-0.06,-0.0598,-0.0596,-0.0596,0,0,0,0,0,0,0,-0.0635,-0.0635,-0.0641,-0.0653,-0.0655,-0.0658,-0.066,-0.0624,-0.0635,-0.0665,-0.0667,-0.0672,-0.0626,-0.0622,-0.0617,-0.0562,-0.06,-0.0597,-0.0595,-0.0594,-0.0498,-0.0497,0,0,0,0,0,0,-0.0638,-0.0635,-0.0641,-0.0641,-0.0651,-0.0657,-0.0659,-0.0658,-0.0637,-0.0637,-0.0671,-0.0673,-0.0627,-0.0621,-0.0615,-0.0585,-0.0597,-0.0593,-0.0591,-0.0498,-0.0498,-0.0497,0,0,0,0,0,0,-0.0637,-0.0638,-0.064,-0.0641,-0.0642,-0.0657,-0.0655,-0.0657,-0.0657,-0.0643,-0.0641,-0.0668,-0.0628,-0.062,-0.0589,-0.0582,-0.0592,-0.0589,-0.0499,-0.0498,-0.0497,-0.0509,0,0,0,0,0,0,-0.0637,-0.0637,-0.0635,-0.0641,-0.0642,-0.0627,-0.0654,-0.0657,-0.0659,-0.0661,-0.064,-0.0636,-0.0628,-0.0594,-0.0586,-0.0577,-0.0586,-0.05,-0.0499,-0.0498,-0.0509,-0.0509,-0.0508,0,0,0,0,0,-0.0636,-0.0618,-0.0635,-0.0636,-0.0639,-0.0626,-0.0626,-0.064,-0.0657,-0.0645,-0.0642,-0.0637,-0.0582,-0.059,-0.0581,-0.0571,-0.05,-0.0499,-0.0498,-0.051,-0.0509,-0.0508,0,0,0,0,0,0,-0.0608,-0.0619,-0.0638,-0.0623,-0.0626,-0.0631,-0.062,-0.0635,-0.0624,-0.0627,-0.0622,-0.0617,-0.0591,-0.0573,-0.0583,-0.0541,-0.0542,-0.0539,-0.0554,-0.0554,-0.0553,-0.0582,-0.0583,0,0,0,0,0,-0.0604,-0.0596,-0.0609,-0.0598,-0.0597,-0.0611,-0.0609,-0.0618,-0.0613,-0.0611,-0.0601,-0.0588,-0.0575,-0.056,-0.054,-0.0505,-0.0541,-0.0495,-0.0494,-0.0494,-0.0511,-0.0578,-0.0586,-0.0493,-0.0493,-0.0493,0,0,-0.0591,-0.0596,-0.0593,-0.0592,-0.0595,-0.0587,-0.0611,-0.06,-0.0601,-0.0602,-0.0586,-0.058,-0.0566,-0.0542,-0.0528,-0.0527,-0.0534,-0.0493,-0.0493,-0.051,-0.0578,-0.0587,-0.0596,-0.0493,-0.0493,-0.0493,0,0,-0.0556,-0.0564,-0.0548,-0.0547,-0.0551,-0.056,-0.0557,-0.056,-0.0568,-0.0549,-0.0565,-0.0566,-0.0518,-0.0532,-0.0528,-0.0509,-0.0532,-0.0486,-0.0503,-0.0567,-0.0576,-0.0585,-0.0629,-0.0642,-0.0483,-0.0483,-0.0483,0,-0.0544,-0.0535,-0.0539,-0.0523,-0.053,-0.0548,-0.0539,-0.0539,-0.0534,-0.0548,-0.0539,-0.0539,-0.0524,-0.0537,-0.0534,-0.0511,-0.0545,-0.0507,-0.057,-0.058,-0.0588,-0.0632,-0.0646,-0.0484,-0.0484,-0.0484,-0.0484,0,-0.0502,-0.05,-0.0484,-0.0483,-0.048,-0.0473,-0.0484,-0.0483,-0.0497,-0.0513,-0.0526,-0.0524,-0.0534,-0.0524,-0.0519,-0.0566,-0.0569,-0.0568,-0.0581,-0.0599,-0.0643,-0.0657,-0.0484,-0.0484,-0.0484,-0.0484,0,0,-0.048,-0.0463,-0.0464,-0.0467,-0.0468,-0.0462,-0.0461,-0.0481,-0.0488,-0.0499,-0.0521,-0.0528,-0.0551,-0.0551,-0.0556,-0.0607,-0.0688,-0.061,-0.0614,-0.067,-0.0824,-0.0747,-0.0755,-0.0704,-0.0706,-0.0708,-0.0826,0,-0.0461,-0.0436,-0.0434,-0.0423,-0.042,-0.0437,-0.0432,-0.0449,-0.0462,-0.0474,-0.0522,-0.0519,-0.0553,-0.0544,-0.0617,-0.0658,-0.0728,-0.0656,-0.0784,-0.0788,-0.0731,-0.077,-0.0715,-0.0808,-0.084,-0.0842,-0.0844,0,-0.0444,-0.0432,-0.0419,-0.0415,-0.0414,-0.0403,-0.0422,-0.0413,-0.0442,-0.0446,-0.0494,-0.0514,-0.0586,-0.0596,-0.0752,-0.0704,-0.0777,-0.0823,-0.0829,-0.0768,-0.0738,-0.0795,-0.0833,-0.0868,-0.0866,-0.0865,-0.0863,0,-0.0458,-0.0433,-0.0431,-0.0428,-0.0412,-0.0412,-0.0402,-0.0415,-0.0376,-0.0424,-0.0388,-0.052,-0.0508,-0.0674,-0.0766,-0.0768,-0.0926,-0.0939,-0.0954,-0.0948,-0.0933,-0.092,-0.1078,-0.1078,-0.1078,-0.1078,-0.1077,0,-0.0462,-0.0459,-0.0432,-0.043,-0.0403,-0.0401,-0.0363,-0.0371,-0.0333,-0.0255,-0.0366,-0.0325,-0.0522,-0.0615,-0.0774,-0.0895,-0.0946,-0.0975,-0.0983,-0.0928,-0.0915,-0.0989,-0.0977,-0.1082,-0.1081,-0.108,-0.1079,0,-0.0481,-0.0471,-0.0456,-0.043,-0.0408,-0.0387,-0.028,-0.0228,-0.0216,-0.0111,-0.0102,-0.0164,-0.0286,-0.0493,-0.071,-0.083,-0.1001,-0.1033,-0.0939,-0.0932,-0.0989,-0.0976,-0.1094,-0.1092,-0.1091,-0.109,-0.1089,0,-0.0488,-0.0486,-0.0441,-0.0391,-0.037,-0.0307,-0.023,-0.0178,-0.0078,0.0013,0.0088,0.001,-0.0008,-0.0323,-0.0584,-0.0869,-0.0937,-0.0971,-0.097,-0.1,-0.0996,-0.0985,-0.0974,-0.0962,-0.096,-0.0959,-0.0957,0,-0.049,-0.048,-0.0452,-0.0344,-0.0262,-0.0142,-0.0018,0.0087,0.0196,0.0292,0.0406,0.0388,0.0129,-0.0123,-0.048,-0.0673,-0.0933,-0.0942,-0.1034,-0.0935,-0.0877,-0.0871,-0.0866,-0.0944,-0.0945,-0.0946,-0.0947,-0.0947,-0.0476,-0.0446,-0.0381,-0.027,-0.0147,0.0049,0.0184,0.034,0.0525,0.0706,0.0637,0.0624,0.0303,-0.013,-0.0427,-0.0745,-0.0782,-0.0906,-0.0912,-0.0919,-0.0851,-0.0791,-0.0829,-0.083,-0.083,-0.0831,-0.0831,0,-0.0429,-0.0374,-0.0282,-0.0118,0.0068,0.0122,0.0367,0.0522,0.0773,0.0857,0.0929,0.0644,0.037,-0.0001,-0.0426,-0.0689,-0.0738,-0.0781,-0.08,-0.0812,-0.0823,-0.0751,-0.0703,-0.0703,-0.0703,-0.0703,0,0,-0.0395,-0.0301,-0.0242,0.0064,0.0216,0.05,0.0665,0.0853,0.0964,0.1053,0.1031,0.0901,0.0463,0.0178,-0.0208,-0.0435,-0.0552,-0.0479,-0.0559,-0.0547,-0.0553,-0.0879,-0.0779,0,0,0,0,0]}],[{"header":{"parameterUnit":"m.s-1","parameterCategory":2,"la1":30.2991,"la2":30.254,"lo1":-89.0895,"lo2":-89.0444,"dy":0.0017,"dx":0.0017,"nx":28,"ny":28,"refTime":"2025-07-10T03:00:00:Z","depth":"4","parameterNumber":2,"parameterNumberName":"U-component_of_CURRENTS"},"data":[0,0,0,0,0,0,0,0,0,0,0,0,0,0,0,0,0,0,0,0,0,0,0,0,0,0,0,0,0,0,0,0,0,0,0,0,0,0,0,0,0,0,0,0,0,0,0,0,0,0,0,0,0,0,0,0,0,0,0.063,0.063,0,0.0659,0.0659,0.066,0.0735,0.0736,0.0738,0.074,0.0872,0.0874,0.0876,0,0,0,0,0,0,0,0,0,0,0,0,0,0.0539,0.0541,0.063,0.0631,0.0631,0.0659,0.0659,0.066,0.0734,0.0736,0.0738,0.074,0.0872,0.0874,0.0876,0,0,0,0,0,0,0,0,0,0,0,0,0,0.0574,0.0542,0.063,0.0672,0.0676,0.0659,0.0659,0.066,0.0734,0.0737,0.0739,0.0741,0.0871,0.0874,0.0877,0.0845,0,0,0.0886,0.0887,0,0,0,0,0,0,0,0,0.0572,0.0577,0.0666,0.0669,0.0674,0.0697,0.0676,0.0727,0.0733,0.0711,0.074,0.0743,0.0822,0.0829,0.0826,0.0851,0.0856,0.0886,0.0888,0.0889,0.089,0,0,0,0,0,0,0,0.057,0.0576,0.0641,0.0666,0.0671,0.0655,0.0664,0.0685,0.0753,0.0713,0.0719,0.0723,0.0825,0.0823,0.083,0.0858,0.0886,0.0888,0.089,0.0891,0.0997,0.0998,0,0,0,0,0,0,0.057,0.0574,0.064,0.0642,0.0629,0.0655,0.0665,0.0686,0.0751,0.0763,0.0721,0.0726,0.0817,0.0827,0.0835,0.0933,0.0889,0.0892,0.0893,0.0996,0.0997,0.0998,0,0,0,0,0,0,0.0568,0.0577,0.0639,0.0608,0.0615,0.0655,0.0678,0.0685,0.0743,0.0756,0.077,0.0778,0.0819,0.0831,0.0894,0.0934,0.0893,0.0896,0.0994,0.0996,0.0997,0.1044,0,0,0,0,0,0,0.0566,0.0576,0.0597,0.0609,0.0617,0.0663,0.0676,0.0684,0.0738,0.0747,0.0808,0.0819,0.0822,0.089,0.0897,0.0937,0.0898,0.0993,0.0995,0.0997,0.1041,0.1047,0.1052,0,0,0,0,0,0.0563,0.0582,0.0599,0.0607,0.0644,0.0664,0.0667,0.0701,0.0739,0.0764,0.0806,0.0821,0.0908,0.0893,0.0902,0.0943,0.0992,0.0995,0.0997,0.1039,0.1046,0.1052,0,0,0,0,0,0,0.0551,0.0592,0.061,0.0642,0.0667,0.0678,0.0699,0.0731,0.0781,0.0804,0.0832,0.0845,0.091,0.0919,0.0902,0.0977,0.0953,0.0957,0.0982,0.0989,0.0994,0.0997,0.0901,0,0,0,0,0,0.0556,0.0587,0.0617,0.0642,0.0661,0.0692,0.071,0.0737,0.0774,0.0802,0.084,0.088,0.0912,0.0949,0.0965,0.1013,0.1024,0.1045,0.1051,0.1055,0.1063,0.1097,0.1106,0.1006,0.1006,0.1006,0,0,0.0557,0.0581,0.0601,0.0642,0.0665,0.0697,0.0712,0.0752,0.0792,0.0806,0.0881,0.09,0.0926,0.0971,0.1003,0.0997,0.1093,0.1058,0.1062,0.1067,0.11,0.111,0.1118,0.1007,0.1007,0.1007,0,0,0.056,0.0602,0.0628,0.0656,0.0699,0.0718,0.0748,0.0789,0.083,0.0891,0.0905,0.095,0.1014,0.1024,0.1043,0.1091,0.1111,0.1109,0.1154,0.1187,0.1196,0.1203,0.1243,0.1254,0.1122,0.1122,0.1122,0,0.0561,0.0599,0.0636,0.0666,0.0693,0.0743,0.0778,0.0817,0.0875,0.0906,0.0932,0.1017,0.1035,0.109,0.1102,0.1105,0.1132,0.1129,0.1195,0.1202,0.1209,0.1248,0.1259,0.1125,0.1125,0.1124,0.1124,0,0.0576,0.0619,0.0638,0.07,0.0733,0.077,0.0827,0.0882,0.0946,0.0975,0.1057,0.108,0.1139,0.1145,0.1146,0.1204,0.1211,0.1189,0.1179,0.1222,0.126,0.1271,0.1129,0.1128,0.1127,0.1126,0,0,0.0544,0.0633,0.0641,0.068,0.0758,0.0784,0.0865,0.0934,0.1004,0.1063,0.1149,0.1186,0.1213,0.1234,0.1242,0.1265,0.1333,0.126,0.1261,0.1301,0.1427,0.1338,0.1341,0.1333,0.1335,0.1336,0.1438,0,0.0547,0.0599,0.065,0.0719,0.0756,0.0835,0.0912,0.0983,0.1055,0.1147,0.1192,0.1265,0.1247,0.1292,0.1318,0.1331,0.1363,0.1309,0.1377,0.1379,0.1295,0.135,0.1342,0.1446,0.1449,0.1451,0.1452,0,0.0545,0.0579,0.0641,0.0746,0.0775,0.0844,0.0971,0.104,0.1165,0.1224,0.1305,0.1348,0.1416,0.139,0.146,0.1435,0.1441,0.1439,0.1442,0.1349,0.1309,0.139,0.1472,0.147,0.1469,0.1467,0.1466,0,0.0488,0.0578,0.0628,0.0661,0.0787,0.0862,0.0947,0.1073,0.1145,0.128,0.1346,0.1435,0.1503,0.1531,0.1541,0.1521,0.1602,0.1572,0.1497,0.1491,0.152,0.1511,0.1612,0.1611,0.1611,0.1611,0.1611,0,0.0461,0.0502,0.0625,0.0652,0.0746,0.0853,0.0974,0.1068,0.122,0.1294,0.139,0.1452,0.1541,0.1595,0.1591,0.1587,0.1653,0.1519,0.1513,0.1539,0.153,0.1529,0.1518,0.1615,0.1614,0.1613,0.1613,0,0.0383,0.0464,0.0525,0.0665,0.0726,0.0794,0.0985,0.1065,0.1214,0.1323,0.1372,0.1502,0.1568,0.163,0.1681,0.1641,0.1641,0.1613,0.1661,0.1654,0.1503,0.1494,0.1566,0.1564,0.1562,0.156,0.1559,0,0.0344,0.0368,0.0506,0.0564,0.0643,0.0772,0.0868,0.1043,0.1112,0.1315,0.1344,0.1482,0.1544,0.1572,0.1623,0.1654,0.1613,0.1625,0.1539,0.1512,0.15,0.1493,0.1487,0.1556,0.1555,0.1555,0.1554,0,0.0246,0.031,0.036,0.0486,0.0596,0.0687,0.0834,0.0887,0.1076,0.1206,0.1308,0.1384,0.1461,0.1513,0.1559,0.1555,0.1629,0.1604,0.1607,0.1527,0.1501,0.1489,0.1484,0.1547,0.1548,0.1549,0.1549,0,0.0174,0.0185,0.0285,0.0399,0.0512,0.0602,0.0688,0.0811,0.0918,0.1149,0.1163,0.131,0.1433,0.1459,0.1481,0.1504,0.1476,0.1427,0.1439,0.1447,0.1358,0.1304,0.1299,0,0,0,0,0,0.0091,0.0123,0.0203,0.0329,0.0441,0.0526,0.0666,0.0754,0.0923,0.0968,0.1087,0.1154,0.1256,0.1311,0.1312,0.1405,0.146,0.1398,0.1403,0.151,0.1518,0.1422,0,0,0,0,0,0,0.0047,0.0096,0.016,0.0258,0.0343,0.046,0.0548,0.0667,0.0705,0.088,0.0928,0.1078,0.1166,0.1242,0.1285,0.1306,0.1287,0.1493,0.149,0.1506,0.1513,0.1519,0.1423,0,0,0,0,0]},{"header":{"parameterUnit":"m.s-1","parameterCategory":2,"la1":30.2991,"la2":30.254,"lo1":-89.0895,"lo2":-89.0444,"dy":0.0017,"dx":0.0017,"nx":28,"ny":28,"refTime":"2025-07-10T03:00:00:Z","depth":"4","parameterNumber":3,"parameterNumberName":"V-component_of_CURRENTS"},"data":[0,0,0,0,0,0,0,0,0,0,0,0,0,0,0,0,0,0,0,0,0,0,0,0,0,0,0,0,0,0,0,0,0,0,0,0,0,0,0,0,0,0,0,0,0,0,0,0,0,0,0,0,0,0,0,0,0,0,0.0196,0.0196,0,0.0136,0.0135,0.0134,0.0105,0.0105,0.0106,0.0106,-0.0025,-0.0028,-0.0032,0,0,0,0,0,0,0,0,0,0,0,0,0,0.0231,0.023,0.0196,0.0196,0.0195,0.0136,0.0135,0.0134,0.0105,0.0105,0.0106,0.0106,-0.0023,-0.0028,-0.0032,0,0,0,0,0,0,0,0,0,0,0,0,0,0.0196,0.023,0.0197,0.0175,0.0173,0.0136,0.0135,0.0134,0.0105,0.0105,0.0106,0.0106,-0.0022,-0.0027,-0.0033,-0.0072,0,0,-0.0049,-0.0052,0,0,0,0,0,0,0,0,0.0198,0.0195,0.0179,0.0177,0.0174,0.013,0.01,0.0062,0.0105,0.0129,0.0106,0.0106,0.0022,0.0013,-0.0001,-0.0079,-0.0084,-0.005,-0.0053,-0.0056,-0.0057,0,0,0,0,0,0,0,0.0201,0.0197,0.0171,0.0178,0.0175,0.015,0.0145,0.0092,0.0071,0.0127,0.0125,0.0121,0.002,0.0004,-0.0005,-0.0086,-0.005,-0.0055,-0.0058,-0.006,-0.0263,-0.0265,0,0,0,0,0,0,0.0215,0.0199,0.0172,0.0169,0.0189,0.0149,0.0144,0.0142,0.0073,0.0064,0.0121,0.012,0.0013,0.0002,-0.0009,-0.0096,-0.0056,-0.0061,-0.0064,-0.0261,-0.0264,-0.0266,0,0,0,0,0,0,0.0216,0.0213,0.0175,0.0184,0.0178,0.0149,0.0147,0.0141,0.0121,0.007,0.006,0.0107,0.0013,-0.0002,-0.0071,-0.01,-0.0063,-0.0068,-0.0259,-0.0262,-0.0265,-0.0248,0,0,0,0,0,0,0.0217,0.0214,0.0214,0.0185,0.0178,0.0146,0.0146,0.014,0.012,0.0117,0.0054,0.0043,0.0012,-0.0062,-0.0076,-0.0107,-0.0072,-0.0256,-0.026,-0.0264,-0.0246,-0.025,-0.0254,0,0,0,0,0,0.0218,0.0216,0.0214,0.0211,0.0181,0.0145,0.0138,0.0117,0.0119,0.0102,0.0057,0.0045,-0.0097,-0.0068,-0.0084,-0.0117,-0.0254,-0.0259,-0.0263,-0.0244,-0.0249,-0.0254,0,0,0,0,0,0,0.0224,0.0212,0.021,0.0202,0.0174,0.0141,0.0128,0.0115,0.0068,0.0065,0.0021,0.0005,-0.0069,-0.0101,-0.0067,-0.0191,-0.018,-0.0188,-0.016,-0.0165,-0.0169,-0.0123,-0.0077,0,0,0,0,0,0.0229,0.0229,0.0203,0.0196,0.0185,0.0156,0.014,0.0124,0.0083,0.0065,0.0019,-0.0038,-0.0102,-0.0136,-0.0195,-0.0259,-0.0259,-0.0294,-0.0298,-0.0301,-0.0278,-0.0311,-0.0315,-0.0281,-0.0281,-0.0281,0,0,0.0231,0.0223,0.0223,0.0198,0.0178,0.0161,0.0146,0.0119,0.01,0.0055,0.0005,-0.0055,-0.0124,-0.0197,-0.0233,-0.0225,-0.0315,-0.0307,-0.0309,-0.0283,-0.0316,-0.0319,-0.0321,-0.0285,-0.0284,-0.0284,0,0,0.0235,0.0226,0.0228,0.0209,0.0181,0.0158,0.0151,0.0109,0.0084,0.0024,-0.0015,-0.0085,-0.0181,-0.023,-0.0268,-0.0331,-0.0336,-0.0365,-0.0345,-0.0379,-0.0381,-0.0382,-0.0387,-0.0389,-0.0365,-0.0365,-0.0365,0,0.0235,0.0243,0.0219,0.0213,0.0207,0.016,0.0157,0.0116,0.0054,0.0039,0.0007,-0.0128,-0.0193,-0.0265,-0.0295,-0.0337,-0.0343,-0.0316,-0.0379,-0.0381,-0.0382,-0.0387,-0.039,-0.0365,-0.0365,-0.0365,-0.0365,0,0.0242,0.0249,0.0244,0.0231,0.0211,0.0196,0.015,0.0116,0.0075,0.0042,-0.0042,-0.014,-0.021,-0.0262,-0.0302,-0.0357,-0.0354,-0.0377,-0.0353,-0.0384,-0.0389,-0.0391,-0.0364,-0.0364,-0.0364,-0.0364,0,0,0.0236,0.0252,0.025,0.0266,0.0226,0.0213,0.0175,0.0139,0.0125,0.0034,0.0008,-0.0129,-0.0171,-0.0217,-0.0288,-0.0329,-0.0367,-0.0355,-0.0357,-0.0333,-0.0416,-0.0414,-0.0416,-0.0398,-0.0399,-0.0399,-0.0413,0,0.0249,0.0272,0.0267,0.0277,0.0285,0.0249,0.0222,0.0181,0.0125,0.0078,-0.002,-0.0088,-0.0159,-0.0205,-0.0259,-0.0346,-0.0372,-0.0358,-0.0412,-0.0413,-0.0385,-0.0419,-0.0401,-0.0415,-0.0416,-0.0416,-0.0416,0,0.025,0.0274,0.0304,0.0328,0.0327,0.0319,0.0293,0.0264,0.0191,0.0144,0.007,-0.0006,-0.0101,-0.0157,-0.0283,-0.0269,-0.0331,-0.0389,-0.0392,-0.0388,-0.0415,-0.0383,-0.0421,-0.042,-0.042,-0.042,-0.042,0,0.0265,0.0295,0.0333,0.0338,0.0345,0.0352,0.0343,0.0289,0.0267,0.0192,0.0161,0.005,-0.0026,-0.0117,-0.0255,-0.0267,-0.037,-0.0405,-0.0446,-0.0446,-0.0446,-0.0444,-0.046,-0.046,-0.046,-0.046,-0.046,0,0.0278,0.0305,0.035,0.0369,0.0401,0.0393,0.0401,0.0368,0.032,0.0297,0.02,0.0144,-0.0022,-0.0112,-0.0217,-0.0337,-0.0342,-0.0432,-0.0453,-0.0442,-0.044,-0.0447,-0.0445,-0.0461,-0.0461,-0.046,-0.046,0,0.0283,0.0312,0.0359,0.04,0.0411,0.0432,0.0442,0.044,0.0394,0.0357,0.0334,0.0208,0.0083,-0.0055,-0.0213,-0.0295,-0.0402,-0.0433,-0.0383,-0.0403,-0.0458,-0.0456,-0.048,-0.048,-0.048,-0.048,-0.048,0,0.029,0.0319,0.0386,0.0416,0.0439,0.0471,0.0484,0.0464,0.0456,0.0391,0.0369,0.0253,0.0156,-0.004,-0.0194,-0.0362,-0.0396,-0.043,-0.0472,-0.0444,-0.0462,-0.0459,-0.0457,-0.0481,-0.0481,-0.0481,-0.0481,0,0.0306,0.0333,0.038,0.0441,0.0477,0.0509,0.0529,0.0524,0.0493,0.047,0.039,0.0272,0.0136,-0.0039,-0.0166,-0.0293,-0.0403,-0.0432,-0.0433,-0.0473,-0.0445,-0.0462,-0.046,-0.0481,-0.0481,-0.0481,-0.0481,0,0.0316,0.0348,0.0409,0.045,0.05,0.0513,0.0533,0.0526,0.0513,0.0447,0.0426,0.028,0.0191,-0.0002,-0.012,-0.0245,-0.0293,-0.033,-0.0338,-0.034,-0.031,-0.0253,-0.024,0,0,0,0,0,0.0312,0.0342,0.0405,0.0444,0.0495,0.0505,0.054,0.0553,0.0535,0.0489,0.0454,0.0333,0.0129,0.0039,-0.0087,-0.0141,-0.0321,-0.0292,-0.037,-0.0482,-0.0482,-0.0473,0,0,0,0,0,0,0.0311,0.0371,0.0397,0.0421,0.0438,0.0476,0.0492,0.0494,0.0468,0.0446,0.0344,0.0298,0.0103,0.0191,-0.0096,-0.0135,-0.0199,-0.0385,-0.0387,-0.0483,-0.0482,-0.0482,-0.0473,0,0,0,0,0]}]]